Location: Ferchesar
(52.6477°N, 12.4298°E)
Time: 13:48:49
(UTC+02:00)

Transit 4A - Pass Details

Date: 28 February 2021
Orbit: 869 x 975 km, 66.8° (Epoch: 16 April)

Event Time Altitude Azimuth Distance (km) Brightness Sun altitude
Rises 11:42:34 0° 213° (SSW) 3,660 11.6 29.0°
Reaches altitude 10° 11:45:08 10° 212° (SSW) 2,711 11.1 29.0°
Maximum altitude 11:51:29 81° 126° (SE) 978 8.7 29.2°
Drops below altitude 10° 11:57:44 10° 41° (NE) 2,673 10.0 29.3°
Sets 12:00:15 0° 40° (NE) 3,605 10.6 29.4°
